Find Starlink 35272

NORAD ID: 65899 Int'l Des: 2025-224 Owner: SPXS Country: US Constellation: starlink operational
LEOCIRCULAR

当前视图

正在加载3D地球...

关于 Starlink 35272

正在加载描述...

即将过境

Passes for default location (London). Set your location on the main map for personalized predictions.

高度历史

Loading altitude history...

两行轨道根数

1 65899U 25224T 26150.92514154 .00022635 00000-0 68036-3 0 9991
2 65899 53.1605 348.0367 0001233 135.4653 224.6448 15.34338426 37476
Epoch: May 30, 2026 • Age: 16 hours

当前状态

高度 468.2 km
速度 7.63 km/s
星下点 -17.09°S, 123.45°W
发射日期 Oct 7, 2025
运行时间 0.6 years
类型 internet

技术详情

分类 Payload
质量 575.00 kg
干质量 530.00 kg
总质量 575.00 kg
长度 0.30 m
直径 4.10 m
跨度 29.00 m
形状 Box + pan
制造商 SPXS
平台类型 Starlink V2MO
阶段状态 In Orbit
所有者/国家 SPXS/US

Most Searched